User: anonymous   Login
Location: Terra Rouge Observatory
(46.0000°N, 62.7500°W)
Time: 10:07:46
(UTC-03:00)
Language:

Landsat 5 - Orbit

View from above orbital plane
View from above orbital plane
View from above satellite
View from above satellite

Ground track
Ground track

The orbit data is extracted from the following two-line orbital elements,

1 14780U 84021A   16120.26463637  .00000639  00000-0  65388-4 0  9994
2 14780  98.0214 218.8370 0093097  92.1078 269.0804 14.91093503714185
Epoch (UTC): 29 April 2016 06:21:04
Eccentricity: 0.0093097
inclination: 98.0214°
perigee height: 529 km
apogee height: 659 km
right ascension of ascending node: 218.8370°
argument of perigee: 92.1078°
revolutions per day: 14.91093503
mean anomaly at epoch: 269.0804°
orbit number at epoch: 71418

The dashed part of the orbit path shows where the satellite is in the earth's shadow,  

DLR